GEFSNE_500_meanwind_096.txt.gz
Wind_Speed
43 43 42 41 40 39 39 38 37 36 34 34 33 32 30 28 27 25 23 23 22 20 19 19 18 18 18 19 19 20 21 21 23 24 25 27 30 31
48 47 46 45 44 43 42 41 40 39 38 37 36 34 33 31 30 28 26 25 24 23 22 21 20 19 19 19 19 19 20 21 21 23 24 24 27 29
52 51 50 49 48 46 45 45 44 42 41 40 39 37 36 34 33 32 30 28 26 25 25 23 22 21 21 20 20 20 20 20 21 22 22 23 24 26
55 56 55 54 53 51 49 48 47 46 45 43 41 40 39 37 36 35 34 31 29 28 27 25 24 24 23 22 21 20 20 21 20 21 21 22 22 24
57 58 58 58 57 56 54 52 50 49 48 47 45 43 42 41 39 38 37 35 33 31 29 28 26 25 24 23 22 21 21 22 22 22 22 22 22 23
58 59 60 60 59 59 58 56 54 53 51 49 48 47 45 43 42 40 39 38 37 36 33 31 29 28 26 25 25 24 23 23 23 23 23 23 23 23
58 59 60 61 61 61 60 59 58 57 55 52 50 50 48 46 44 44 41 40 39 38 37 35 33 31 29 28 27 26 25 25 24 24 24 24 25 25
55 57 59 60 61 61 61 61 60 59 58 56 54 53 51 49 48 46 45 43 41 40 39 38 36 34 33 31 30 29 28 27 26 25 25 26 26 26
53 55 58 58 59 60 60 61 61 60 59 58 56 55 54 52 50 49 47 46 44 42 41 40 39 37 35 33 32 31 30 29 28 27 27 27 27 27
48 51 54 56 57 57 58 60 60 60 60 59 57 56 55 55 53 51 49 48 46 45 43 41 40 39 37 35 34 33 32 31 30 29 29 28 28 28
42 44 47 50 53 54 56 56 58 59 59 58 57 57 56 55 54 52 51 49 47 46 45 43 41 40 38 37 35 34 34 33 31 30 29 29 28 29
37 40 41 44 47 49 50 52 54 55 56 56 56 56 56 55 53 52 51 49 48 46 45 43 42 41 39 38 37 36 35 33 32 31 30 30 29 29
31 34 36 38 41 43 46 47 49 51 53 53 54 55 55 54 54 53 52 50 49 47 45 44 42 41 39 38 37 36 35 34 33 31 30 30 29 29
27 29 31 33 35 37 39 42 44 46 48 49 50 51 52 52 52 52 51 50 49 47 45 44 43 41 39 39 38 36 35 34 32 32 31 30 30 29
22 25 26 27 29 31 33 36 38 41 43 45 46 46 47 47 48 49 49 49 49 47 45 44 43 41 40 39 38 37 35 33 32 31 31 30 29 28
18 21 23 24 26 28 30 32 34 36 38 41 42 44 45 45 45 46 46 46 47 47 46 44 42 41 40 39 38 36 35 33 32 31 31 30 29 28
15 18 20 21 23 25 27 28 30 32 35 38 41 42 43 44 43 42 43 44 44 45 45 44 42 41 40 39 38 36 35 33 32 32 31 29 28 27
13 16 17 19 21 23 24 26 28 30 32 34 37 40 41 42 42 42 41 42 42 42 43 43 42 41 40 38 37 36 35 33 33 31 30 28 27 27
10 12 15 17 19 21 23 24 25 27 29 31 33 36 39 41 41 41 40 39 39 40 40 41 40 40 39 38 37 36 35 33 32 31 29 28 27 27
7 9 11 13 16 18 20 22 23 26 27 29 32 34 37 38 39 39 38 37 37 38 38 39 39 39 38 37 35 34 33 32 31 30 29 28 27 27
4 6 8 10 13 14 16 18 21 23 25 28 30 33 36 37 37 37 36 36 36 37 37 37 37 38 37 37 35 33 32 31 30 29 28 27 27 26
1 3 4 7 9 11 12 14 15 18 21 23 27 30 33 35 35 35 35 35 34 35 35 36 36 35 35 34 33 32 31 30 30 29 29 28 27 27
3 1 2 4 7 9 10 12 14 15 17 20 24 27 29 31 32 33 33 33 32 32 32 33 34 34 33 32 32 31 30 29 29 28 28 27 28 28

GEFSNE_500_meanwind_102.txt.gz
Wind_Speed
37 37 38 39 38 38 37 37 37 36 36 36 36 35 34 33 32 30 29 28 26 26 25 24 23 22 22 21 20 21 22 23 22 22 22 22 23 24
39 39 39 40 40 39 40 40 39 38 38 37 37 36 36 35 34 32 31 29 28 26 25 24 24 23 22 21 19 19 20 21 21 21 21 21 21 22
42 41 42 41 41 41 43 42 41 41 41 40 40 38 38 37 36 35 33 32 30 28 27 26 25 24 23 22 20 19 19 20 20 20 21 21 21 21
46 45 45 44 44 44 45 44 43 42 42 42 42 40 39 39 39 37 36 34 33 30 29 28 27 26 24 23 22 21 20 20 20 20 20 21 21 20
49 49 49 49 48 48 47 47 46 45 45 44 43 42 41 41 41 40 38 36 35 33 31 30 28 27 26 25 23 22 21 20 20 20 20 21 21 21
51 51 52 52 51 52 51 50 50 49 48 48 46 45 44 43 43 41 40 39 37 35 34 32 30 28 27 26 25 24 22 21 21 20 20 20 20 21
51 53 54 54 54 55 55 53 52 52 52 51 50 49 48 46 45 43 42 41 40 38 36 35 33 31 29 28 27 26 25 23 22 21 20 20 21 21
50 52 54 55 55 56 56 56 56 55 54 54 54 53 51 49 47 46 45 44 43 41 40 38 36 34 32 31 29 28 27 26 25 24 23 22 22 21
46 49 51 54 55 56 56 57 57 57 57 56 56 55 54 52 50 48 47 46 45 44 43 41 39 37 35 34 32 30 29 28 27 26 25 24 24 23
42 46 48 51 54 55 56 57 57 57 58 58 57 57 56 54 52 50 49 48 48 46 45 43 42 40 38 36 34 33 32 31 29 28 27 26 25 24
37 40 42 46 50 52 53 55 56 57 59 59 58 58 57 56 54 53 51 50 49 48 46 44 43 42 40 39 37 36 34 33 32 31 29 28 27 26
31 34 37 40 45 49 51 52 53 55 56 57 58 58 57 57 56 53 51 51 50 48 48 47 45 44 43 41 39 38 36 35 34 33 32 30 29 28
26 29 32 35 39 43 46 49 50 52 53 54 55 57 57 56 55 54 53 51 50 50 49 48 47 45 44 42 41 40 39 37 35 34 34 33 31 30
22 24 28 30 33 37 40 43 46 49 50 51 53 54 56 56 54 53 53 52 50 50 49 49 48 47 45 42 41 40 40 39 37 36 35 34 33 32
18 21 24 27 29 32 35 38 41 44 46 48 49 51 53 55 55 54 53 52 50 50 50 48 47 46 45 44 42 41 40 39 38 37 37 36 35 34
14 17 20 22 25 27 30 33 37 40 42 45 47 49 51 52 53 53 53 53 52 50 49 49 47 45 44 44 44 42 41 40 39 38 37 36 36 34
11 14 17 20 22 25 27 30 33 37 39 42 44 47 48 50 51 52 51 51 50 49 48 48 48 47 45 44 43 42 40 40 39 39 38 37 36 35
9 11 13 16 19 22 24 27 30 32 35 38 41 44 46 48 50 51 50 49 49 49 48 47 46 46 45 44 43 42 41 40 39 39 38 38 37 36
6 8 10 13 16 19 21 24 27 30 32 35 38 41 44 45 47 48 48 47 47 47 47 46 45 44 44 43 42 42 41 40 39 39 38 38 38 37
3 5 7 9 11 14 17 20 23 26 29 32 34 37 41 42 44 46 46 45 45 45 44 44 42 41 40 41 41 41 41 40 40 40 39 38 38 37
2 3 5 8 10 11 13 16 19 23 26 28 31 34 36 39 41 43 44 43 43 43 42 41 40 40 41 41 40 40 40 41 40 39 38 38 37 37
3 2 3 5 6 9 11 13 16 19 22 26 28 31 33 35 38 41 42 42 41 41 41 40 40 39 39 39 38 38 39 39 40 40 39 39 38 36
6 4 2 2 3 5 7 9 11 15 19 22 26 29 30 32 34 37 39 39 40 40 40 39 38 38 38 38 38 37 36 37 37 38 38 38 36 35

GEFSNE_500_meanwind_108.txt.gz
Wind_Speed
42 41 40 39 40 41 41 41 39 39 39 40 39 39 40 41 40 39 38 37 36 35 33 33 32 31 30 30 29 28 27 27 27 27 27 26 26 26
44 43 42 41 42 42 42 42 41 40 40 40 41 41 42 42 41 40 39 39 37 35 34 32 32 31 31 30 29 29 28 27 26 26 26 26 26 25
45 45 43 42 42 43 43 43 42 41 41 41 41 42 43 43 43 42 41 40 38 36 35 33 32 32 31 30 29 29 28 27 27 26 26 26 25 25
45 45 45 44 44 43 43 43 44 43 42 42 43 43 43 43 44 43 42 40 39 38 36 35 33 32 31 30 30 29 28 27 26 26 25 25 25 25
45 46 46 46 45 45 45 45 44 44 44 44 44 44 45 45 45 44 43 42 40 39 38 36 35 34 33 32 30 29 28 27 26 26 25 25 25 25
44 45 46 46 46 46 47 47 47 46 46 45 45 46 46 47 46 45 45 44 43 41 40 38 37 35 34 33 32 30 29 28 27 25 25 25 25 25
42 43 45 46 47 48 48 49 50 49 48 48 47 48 48 48 48 46 46 45 45 43 41 39 38 37 35 34 33 32 31 29 27 26 25 25 24 24
40 42 45 46 47 49 49 50 51 50 51 50 49 47 49 48 48 48 48 47 45 44 43 41 40 38 37 36 35 34 32 31 29 28 27 25 24 24
38 41 44 46 47 48 49 50 51 51 52 52 52 50 50 50 49 49 48 48 47 46 45 43 42 41 39 38 37 36 35 34 32 31 29 27 26 24
34 37 41 43 47 49 49 50 50 52 52 53 54 53 53 53 52 50 50 50 50 50 48 46 44 43 42 40 39 37 36 35 34 33 31 29 28 26
30 33 36 40 43 47 48 49 50 52 53 53 54 55 55 54 54 53 52 51 50 51 50 49 47 45 44 43 42 40 38 37 35 34 33 32 30 29
27 30 33 36 40 43 45 47 49 50 52 53 54 55 56 55 56 55 54 52 51 51 50 50 50 48 46 45 44 42 41 39 38 36 35 34 33 32
23 26 29 32 34 38 41 43 46 48 50 52 54 54 54 55 56 56 55 54 53 51 51 50 51 50 48 47 46 45 43 42 41 39 38 36 35 34
19 23 26 28 30 33 36 39 42 45 48 49 51 52 53 53 54 56 56 54 54 52 51 51 51 51 50 49 48 47 46 45 43 42 41 39 38 36
13 17 21 24 26 29 32 35 38 42 44 47 49 51 52 53 53 54 55 55 54 53 53 52 51 51 51 51 49 48 47 47 45 44 43 41 40 38
9 12 16 19 22 26 28 31 34 38 41 43 46 48 50 51 51 52 54 54 54 54 53 53 52 51 51 51 50 49 49 48 47 46 45 44 42 40
6 8 12 15 19 22 24 27 29 33 37 40 43 46 47 49 50 51 52 53 53 53 53 52 52 51 51 50 49 49 49 48 47 46 45 44 43 42
6 6 9 12 16 19 21 23 26 28 32 36 39 43 45 46 47 48 50 50 51 52 52 52 51 51 51 50 49 48 48 48 48 47 46 45 44 43
5 5 7 9 12 15 18 21 24 26 29 31 35 38 41 44 45 46 48 49 50 50 51 51 50 49 49 49 48 48 47 47 47 47 46 46 45 44
5 5 5 7 9 12 15 18 21 24 26 29 32 35 37 40 42 44 46 47 49 49 49 50 50 49 48 49 49 49 48 47 47 46 45 45 44 43
7 4 4 5 7 10 12 15 18 21 24 27 29 31 34 36 39 41 43 45 47 48 49 49 49 48 47 47 48 49 48 46 46 45 45 44 43 43
7 5 5 4 5 7 9 12 15 18 21 24 27 29 32 33 35 38 40 42 44 46 47 48 48 47 46 46 46 46 46 46 45 45 44 44 43 43
7 6 5 4 4 5 6 8 11 13 16 19 23 25 28 31 32 35 36 38 40 43 44 46 46 47 47 46 45 45 45 44 44 44 44 44 43 41

GEFSNE_500_meanwind_114.txt.gz
Wind_Speed
43 43 44 44 44 44 44 43 43 43 43 43 43 43 43 43 43 42 43 45 44 43 42 41 40 40 40 39 37 36 35 34 32 32 31 30 29 29
44 45 45 45 45 45 46 45 44 44 43 44 45 45 45 45 44 43 43 44 45 45 44 43 41 41 40 39 38 36 35 34 33 32 31 31 30 29
44 45 46 46 47 46 46 47 46 45 45 44 44 45 45 46 45 45 45 45 45 45 44 43 43 42 41 40 39 38 36 34 33 33 32 31 31 30
43 44 45 46 46 47 47 47 47 46 45 45 45 46 46 46 47 46 46 46 45 46 45 44 44 43 42 41 40 38 36 35 34 34 33 32 31 30
40 42 43 45 46 47 48 48 48 47 46 46 46 46 46 47 47 47 47 46 46 46 47 46 45 44 43 42 41 39 37 36 35 34 33 32 31 30
38 40 41 43 44 45 47 47 48 48 47 46 47 47 46 46 46 45 47 47 47 47 48 47 46 45 45 43 42 40 38 37 36 35 33 32 31 30
34 37 39 41 42 44 45 47 47 47 47 46 46 46 46 46 46 45 46 46 47 48 48 48 47 47 46 44 42 41 39 37 36 35 34 33 32 30
30 33 36 38 40 42 43 45 46 47 47 47 46 46 46 47 47 46 46 47 47 48 49 49 49 47 46 45 43 42 40 38 37 35 34 33 32 31
28 30 33 35 37 39 42 44 45 46 47 46 47 46 46 47 47 47 46 46 47 48 50 50 50 49 47 46 44 43 42 40 37 36 35 34 33 31
25 26 29 31 34 37 39 42 44 46 46 47 47 47 48 47 48 48 47 46 47 48 49 50 50 50 48 47 45 44 42 40 38 38 36 35 34 32
21 24 26 29 30 33 37 39 42 44 46 47 47 48 49 48 48 48 47 47 48 49 48 49 49 50 49 48 46 45 43 41 39 39 38 36 35 33
19 20 22 25 28 30 32 36 39 42 44 46 47 48 49 49 49 48 48 47 49 50 50 50 49 50 50 49 47 46 45 43 41 40 39 38 36 35
16 18 20 22 24 28 30 32 36 39 42 42 44 46 49 50 50 49 49 48 48 48 50 50 49 49 49 49 48 47 46 44 43 41 40 39 38 36
13 14 17 19 21 24 28 31 34 36 39 40 42 43 45 48 50 50 50 49 49 49 50 50 49 47 47 48 49 48 47 46 44 43 42 41 40 38
11 12 14 16 19 21 24 27 30 33 35 38 40 41 43 46 48 49 49 50 49 49 49 49 49 48 49 49 49 49 48 47 46 45 43 42 41 40
9 10 11 13 16 19 21 24 27 30 32 35 38 39 41 43 45 47 47 49 50 50 48 49 49 49 49 50 49 50 50 49 47 46 45 44 43 42
9 8 8 10 13 16 18 21 24 27 29 32 36 38 39 40 42 45 46 47 49 49 48 48 49 50 50 50 50 50 49 49 49 48 47 46 45 44
9 8 7 8 9 11 14 17 21 25 28 30 32 35 37 39 41 43 45 46 46 48 48 48 48 48 49 50 50 49 50 50 50 49 48 48 46 45
10 8 7 6 7 9 10 13 17 20 23 27 30 33 35 37 39 41 42 44 44 45 46 47 47 47 47 48 49 49 48 48 48 49 49 48 48 46
11 9 7 5 5 7 9 11 14 17 20 23 26 29 32 35 37 39 40 42 43 44 44 45 46 46 46 47 47 48 48 48 48 48 47 47 47 47
11 9 7 6 5 6 8 10 12 15 17 20 23 26 29 31 34 36 39 40 41 42 43 43 45 45 46 46 46 46 46 47 46 45 45 46 47 47
11 8 7 6 6 6 6 9 11 13 16 18 20 23 25 28 31 33 35 38 40 40 41 41 42 44 45 45 44 44 46 45 45 45 44 44 44 45
11 9 8 7 6 6 6 8 9 11 13 16 19 21 23 25 28 30 32 34 37 38 39 40 41 41 43 44 44 44 44 44 44 44 44 43 43 43